Location: Unspecified
(33.2407°S, 0.0000°E)
Time: 22:51:59
(UTC+00:00)

XW-2B - Visible Passes

Search period start: 20 July 2019 00:00
Search period end: 30 July 2019 00:00
Orbit: 508 x 529 km, 97.5° (Epoch: 20 July)

Date Brightness Start Highest point End Pass type
(mag) Time Alt. Az. Time Alt. Az. Time Alt. Az.
20 Jul ? 04:30:24 10° ENE 04:33:13 20° ESE 04:34:28 17° SE visible
20 Jul ? 06:04:12 10° NNW 06:07:10 21° W 06:09:32 13° SW visible
20 Jul ? 17:39:23 10° SSE 17:43:10 49° E 17:46:52 10° N visible
21 Jul ? 04:17:27 10° E 04:19:23 14° ESE 04:20:26 12° SE visible
21 Jul ? 05:49:41 10° NNW 05:53:08 32° W 05:55:30 17° SW visible
21 Jul ? 19:00:55 10° SW 19:02:56 14° WSW 19:04:56 10° W visible
22 Jul ? 05:35:25 10° N 05:39:09 51° W 05:41:30 21° SSW visible
22 Jul ? 18:46:12 10° SSW 18:49:06 20° WSW 18:51:57 10° WNW visible
23 Jul ? 05:21:20 10° N 05:25:10 82° WNW 05:27:29 23° SSW visible
23 Jul ? 18:31:48 10° SSW 18:35:13 30° WSW 18:38:34 10° NW visible
24 Jul ? 05:07:26 10° NNE 05:11:13 63° ESE 05:13:29 23° S visible
24 Jul ? 18:17:36 10° S 18:21:19 46° WSW 18:24:58 10° NNW visible
25 Jul ? 04:53:42 10° NE 04:57:18 40° ESE 04:59:30 21° SSE visible
25 Jul ? 18:03:32 10° S 18:07:24 74° WSW 18:11:11 10° NNW visible
26 Jul ? 04:40:10 10° NE 04:43:25 27° ESE 04:45:31 17° SSE visible
26 Jul ? 06:15:04 10° NW 06:17:29 16° W 06:19:57 10° SW visible
26 Jul ? 17:49:34 10° SSE 17:53:26 70° E 17:57:13 10° N visible
27 Jul ? 04:26:53 10° ENE 04:29:33 18° ESE 04:31:32 13° SE visible
27 Jul ? 06:00:18 10° NNW 06:03:27 24° W 06:06:37 10° SW visible
27 Jul ? 17:35:45 10° SSE 17:39:27 43° E 17:43:04 10° N visible
27 Jul ? 19:12:42 10° WSW 19:13:05 10° WSW 19:13:27 10° WSW visible
28 Jul ? 04:14:06 10° E 04:15:43 12° ESE 04:17:21 10° SE visible
28 Jul ? 05:45:52 10° NNW 05:49:25 36° W 05:52:38 12° SSW visible
28 Jul ? 18:57:00 10° SSW 18:59:15 15° WSW 19:01:30 10° WNW visible
29 Jul ? 05:31:39 10° N 05:35:26 58° W 05:38:41 14° SSW visible
29 Jul ? 18:42:22 10° SSW 18:45:24 22° WSW 18:48:23 10° WNW visible
